Weather History for Blackwell, OK

Change the Weather History Date:

Friday, February 8, 2013

  Actual Average (KPNC) Record (KPNC)
Temperature  
Mean Temperature 35 °F -  
Max Temperature 46 °F 49 °F 73 °F (1957)
Min Temperature 24 °F 24 °F 3 °F (1971)
Degree Days  
Heating Degree Days 30    
Moisture  
Dew Point 30 °F    
Average Humidity 84    
Maximum Humidity 100    
Minimum Humidity 57    
Precipitation  
Precipitation 0.00 in - - ()
Sea Level Pressure  
Sea Level Pressure 30.23 in    
Wind  
Wind Speed 7 mph (ENE)    
Max Wind Speed 10 mph    
Max Gust Speed -    
Visibility 8 miles    
Events Fog    
Averages and records for this station are not official NWS values.
T = Trace of Precipitation, MM = Missing Value Source: NWS Daily Summary

Daily Weather History Graph

Daily Weather History Graph

Search for Another Location

Airport:

Trip Planner

Search our weather history database for the weather conditions in past years. The results will help you decide how hot, cold, wet, or windy it might be!

Date:

Astronomy

Feb. 08, 2013 Rise Set
Actual Time 7:24 AM CST 6:02 PM CST
Civil Twilight 6:58 AM CST 6:29 PM CST
Nautical Twilight 6:27 AM CST 7:00 PM CST
Astronomical Twilight 5:57 AM CST 7:30 PM CST
Moon 5:53 AM CST (2/8) 4:38 PM CST (2/8)
Length of Visible Light 11h 31m
Length of Day
10h 38m
Waning Crescent, 3% of the Moon is Illuminated
Feb 8
Waning Crescent
Feb 10
New
Feb 17
First Quarter
Feb 25
Full
Mar 4
Last Quarter

Hourly Weather History & Observations

Time (CST) Temp. Windchill Dew Point Humidity Pressure Visibility Wind Dir Wind Speed Gust Speed Precip Events Conditions
12:15 AM 33.8 °F 26.4 °F 28.4 °F 81% 30.19 in 10.0 mi NNW 9.2 mph - N/A   Clear
12:35 AM 32.0 °F 24.8 °F 28.4 °F 87% 30.20 in 10.0 mi NNW 8.1 mph - N/A   Clear
12:55 AM 32.0 °F 27.5 °F 28.4 °F 87% 30.20 in 10.0 mi North 4.6 mph - N/A   Clear
1:15 AM 32.0 °F 24.8 °F 28.4 °F 87% 30.20 in 10.0 mi NNW 8.1 mph - N/A   Clear
1:35 AM 30.2 °F 23.4 °F 28.4 °F 93% 30.21 in 10.0 mi NNW 6.9 mph - N/A   Clear
1:55 AM 28.4 °F 22.2 °F 26.6 °F 93% 30.21 in 10.0 mi North 5.8 mph - N/A   Clear
2:15 AM 32.0 °F 28.7 °F 28.4 °F 87% 30.21 in 10.0 mi North 3.5 mph - N/A   Clear
2:35 AM 30.2 °F 23.4 °F 26.6 °F 86% 30.22 in 10.0 mi North 6.9 mph - N/A   Clear
2:55 AM 30.2 °F 21.9 °F 26.6 °F 86% 30.22 in 10.0 mi North 9.2 mph - N/A   Clear
3:35 AM 28.4 °F - 26.6 °F 93% 30.23 in 10.0 mi Calm Calm - N/A   Clear
3:55 AM 28.4 °F 23.3 °F 26.6 °F 93% 30.23 in 10.0 mi NNW 4.6 mph - N/A   Clear
4:15 AM 26.6 °F 19.1 °F 24.8 °F 93% 30.23 in 10.0 mi NNW 6.9 mph - N/A   Clear
4:35 AM 26.6 °F 17.5 °F 26.6 °F 100% 30.24 in 10.0 mi NNW 9.2 mph - N/A   Clear
4:55 AM 26.6 °F 17.5 °F 26.6 °F 100% 30.24 in 10.0 mi North 9.2 mph - N/A   Clear
5:15 AM 26.6 °F 17.5 °F 26.6 °F 100% 30.24 in 10.0 mi North 9.2 mph - N/A   Clear
5:35 AM 26.6 °F 19.1 °F 26.6 °F 100% 30.24 in 9.0 mi North 6.9 mph - N/A   Clear
5:55 AM 26.6 °F 21.2 °F 26.6 °F 100% 30.25 in 9.0 mi NNE 4.6 mph - N/A   Clear
6:15 AM 26.6 °F 20.0 °F 26.6 °F 100% 30.26 in 8.0 mi NNE 5.8 mph - N/A   Clear
6:35 AM 26.6 °F 22.6 °F 26.6 °F 100% 30.27 in 8.0 mi North 3.5 mph - N/A   Clear
6:55 AM 24.8 °F 19.1 °F 24.8 °F 100% 30.27 in 7.0 mi NNE 4.6 mph - N/A   Clear
7:15 AM 24.8 °F 19.1 °F 24.8 °F 100% 30.28 in 7.0 mi North 4.6 mph - N/A   Clear
7:35 AM 26.6 °F 18.2 °F 26.6 °F 100% 30.27 in 5.0 mi NNE 8.1 mph - N/A   Partly Cloudy
7:55 AM 26.6 °F 17.5 °F 26.6 °F 100% 30.28 in 3.0 mi ENE 9.2 mph - N/A   Mostly Cloudy
8:15 AM 26.6 °F 16.8 °F 26.6 °F 100% 30.28 in 0.2 mi ENE 10.4 mph - N/A Fog Light Freezing Fog
8:35 AM 26.6 °F 18.2 °F 26.6 °F 100% 30.29 in 0.2 mi NE 8.1 mph - N/A Fog Light Freezing Fog
8:55 AM 28.4 °F 19.7 °F 28.4 °F 100% 30.30 in 0.5 mi NE 9.2 mph - N/A Fog Light Freezing Fog
9:15 AM 28.4 °F 19.7 °F 28.4 °F 100% 30.30 in 0.8 mi East 9.2 mph - N/A   Overcast
9:35 AM 28.4 °F 19.7 °F 28.4 °F 100% 30.31 in 1.2 mi ENE 9.2 mph - N/A   Overcast
9:55 AM 30.2 °F 23.4 °F 30.2 °F 100% 30.32 in 1.8 mi ENE 6.9 mph - N/A   Overcast
10:15 AM 30.2 °F 22.6 °F 30.2 °F 100% 30.32 in 2.0 mi East 8.1 mph - N/A   Overcast
10:35 AM 32.0 °F 27.5 °F 32.0 °F 100% 30.33 in 2.5 mi East 4.6 mph - N/A   Overcast
10:55 AM 32.0 °F 28.7 °F 32.0 °F 100% 30.34 in 3.0 mi SSE 3.5 mph - N/A   Overcast
11:15 AM 32.0 °F 26.4 °F 32.0 °F 100% 30.34 in 4.0 mi ESE 5.8 mph - N/A   Overcast
11:35 AM 32.0 °F 27.5 °F 32.0 °F 100% 30.33 in 4.0 mi NE 4.6 mph - N/A   Overcast
12:15 PM 35.6 °F 29.9 °F 32.0 °F 87% 30.32 in 5.0 mi East 6.9 mph - N/A   Overcast
12:35 PM 35.6 °F 30.7 °F 32.0 °F 87% 30.32 in 6.0 mi ENE 5.8 mph - N/A   Mostly Cloudy
12:55 PM 37.4 °F 32.1 °F 32.0 °F 81% 30.28 in 7.0 mi East 6.9 mph - N/A   Scattered Clouds
1:15 PM 39.2 °F 35.0 °F 32.0 °F 75% 30.27 in 7.0 mi East 5.8 mph - N/A   Clear
1:35 PM 41.0 °F 37.1 °F 32.0 °F 70% 30.27 in 8.0 mi East 5.8 mph - N/A   Clear
1:55 PM 41.0 °F 36.4 °F 32.0 °F 70% 30.26 in 9.0 mi East 6.9 mph - N/A   Clear
2:15 PM 44.6 °F 40.7 °F 32.0 °F 61% 30.25 in 9.0 mi ESE 6.9 mph - N/A   Clear
2:35 PM 44.6 °F 40.2 °F 32.0 °F 61% 30.24 in 9.0 mi SE 8.1 mph - N/A   Clear
2:55 PM 44.6 °F 41.4 °F 32.0 °F 61% 30.23 in 10.0 mi SE 5.8 mph - N/A   Clear
3:15 PM 44.6 °F 42.2 °F 32.0 °F 61% 30.22 in 9.0 mi SE 4.6 mph - N/A   Clear
3:35 PM 46.4 °F 43.5 °F 32.0 °F 57% 30.21 in 9.0 mi ESE 5.8 mph - N/A   Clear
3:55 PM 46.4 °F 42.9 °F 32.0 °F 57% 30.20 in 9.0 mi ESE 6.9 mph - N/A   Clear
4:15 PM 46.4 °F 41.9 °F 32.0 °F 57% 30.19 in 8.0 mi East 9.2 mph - N/A   Clear
4:35 PM 46.4 °F 42.4 °F 32.0 °F 57% 30.20 in 8.0 mi SE 8.1 mph - N/A   Clear
4:55 PM 46.4 °F 43.5 °F 32.0 °F 57% 30.20 in 8.0 mi ESE 5.8 mph - N/A   Clear
5:15 PM 44.6 °F 41.4 °F 32.0 °F 61% 30.20 in 9.0 mi SSE 5.8 mph - N/A   Clear
5:35 PM 44.6 °F 41.4 °F 32.0 °F 61% 30.20 in 9.0 mi SE 5.8 mph - N/A   Clear
5:55 PM 42.8 °F 40.1 °F 32.0 °F 66% 30.19 in 8.0 mi SE 4.6 mph - N/A   Clear
6:15 PM 41.0 °F 38.0 °F 32.0 °F 70% 30.18 in 7.0 mi ESE 4.6 mph - N/A   Clear
6:35 PM 39.2 °F 35.9 °F 30.2 °F 70% 30.17 in 9.0 mi East 4.6 mph - N/A   Clear
6:55 PM 37.4 °F 32.1 °F 30.2 °F 75% 30.17 in 9.0 mi East 6.9 mph - N/A   Clear
7:15 PM 39.2 °F 34.2 °F 30.2 °F 70% 30.16 in 9.0 mi ESE 6.9 mph - N/A   Clear
7:35 PM 37.4 °F 31.4 °F 32.0 °F 81% 30.16 in 10.0 mi East 8.1 mph - N/A   Clear
7:55 PM 37.4 °F 31.4 °F 30.2 °F 75% 30.16 in 10.0 mi East 8.1 mph - N/A   Clear
8:15 PM 37.4 °F 33.8 °F 30.2 °F 75% 30.16 in 10.0 mi East 4.6 mph - N/A   Clear
8:35 PM 37.4 °F 32.1 °F 32.0 °F 81% 30.16 in 9.0 mi East 6.9 mph - N/A   Clear
8:55 PM 35.6 °F 29.9 °F 32.0 °F 87% 30.16 in 8.0 mi East 6.9 mph - N/A   Clear
9:15 PM 35.6 °F 29.9 °F 32.0 °F 87% 30.15 in 9.0 mi East 6.9 mph - N/A   Clear
9:35 PM 35.6 °F 29.2 °F 32.0 °F 87% 30.14 in 10.0 mi East 8.1 mph - N/A   Clear
9:55 PM 35.6 °F 29.9 °F 32.0 °F 87% 30.14 in 10.0 mi East 6.9 mph - N/A   Clear
10:15 PM 35.6 °F 29.9 °F 32.0 °F 87% 30.15 in 10.0 mi ESE 6.9 mph - N/A   Clear
10:35 PM 37.4 °F 32.1 °F 32.0 °F 81% 30.15 in 10.0 mi ESE 6.9 mph - N/A   Clear
10:55 PM 37.4 °F 32.1 °F 32.0 °F 81% 30.15 in 10.0 mi SE 6.9 mph - N/A   Clear
11:15 PM 35.6 °F 29.9 °F 32.0 °F 87% 30.15 in 10.0 mi ESE 6.9 mph - N/A   Clear
11:35 PM 35.6 °F 30.7 °F 32.0 °F 87% 30.15 in 10.0 mi ESE 5.8 mph - N/A   Clear
11:55 PM 35.6 °F 31.7 °F 32.0 °F 87% 30.15 in 10.0 mi ESE 4.6 mph - N/A   Clear